• In Kazakhstan
  • List of Countries
  • For 7 days
  • Water Temperature
  • Satellite Maps
  • Weather Map
  • News
  • Weather Widgets
  • user-avatar
    Login

    Hourly Weather Brzykow

    Today, 24 May, Friday

    Time Temperature Precipitation Wind Pressure Humidity
    00:00 +10°C° 0 mm 1 mps 752 mmHg 88%
    01:00 +9°C° 0 mm 1 mps 752 mmHg 89%
    02:00 +9°C° 0 mm 1 mps 751 mmHg 89%
    03:00 +8°C° 0 mm 1 mps 751 mmHg 90%
    04:00 +8°C° 0 mm 1 mps 751 mmHg 90%
    05:00 +9°C° 0 mm 1 mps 751 mmHg 84%
    06:00 +11°C° 0 mm 1 mps 751 mmHg 78%
    07:00 +12°C° 0 mm 1 mps 751 mmHg 72%
    08:00 +14°C° 0 mm 2 mps 751 mmHg 66%
    09:00 +15°C° 0 mm 2 mps 751 mmHg 59%
    10:00 +17°C° 0 mm 2 mps 751 mmHg 53%
    11:00 +18°C° 0 mm 2 mps 751 mmHg 50%
    12:00 +19°C° 0 mm 2 mps 750 mmHg 48%
    13:00 +20°C° 0 mm 2 mps 750 mmHg 45%
    14:00 +20°C° 0 mm 2 mps 750 mmHg 45%
    15:00 +21°C° 0 mm 1 mps 749 mmHg 45%
    16:00 +21°C° 0 mm 1 mps 749 mmHg 45%
    17:00 +20°C° 0 mm 1 mps 749 mmHg 51%
    18:00 +19°C° 0 mm 1 mps 748 mmHg 56%
    19:00 +16°C° 0 mm 1 mps 748 mmHg 62%
    20:00 +15°C° 0 mm 1 mps 748 mmHg 63%
    21:00 +14°C° 0 mm 2 mps 748 mmHg 64%
    22:00 +13°C° 0 mm 2 mps 748 mmHg 65%
    23:00 +12°C° 0 mm 2 mps 748 mmHg 68%

    Tomorrow, 25 May, Saturday

    Time Temperature Precipitation Wind Pressure Humidity
    00:00 +12°C° 0 mm 2 mps 748 mmHg 70%
    01:00 +10°C° 0 mm 2 mps 748 mmHg 73%
    02:00 +10°C° 0 mm 2 mps 748 mmHg 76%
    03:00 +10°C° 0 mm 2 mps 748 mmHg 80%
    04:00 +10°C° 0 mm 2 mps 748 mmHg 84%
    05:00 +13°C° 0 mm 2 mps 748 mmHg 82%
    06:00 +14°C° 0 mm 3 mps 748 mmHg 81%
    07:00 +16°C° 0 mm 3 mps 748 mmHg 79%
    08:00 +17°C° 0.3 mm 3 mps 749 mmHg 77%
    09:00 +18°C° 0.3 mm 4 mps 749 mmHg 74%
    10:00 +20°C° 0.3 mm 4 mps 749 mmHg 72%
    11:00 +20°C° 0.5 mm 4 mps 749 mmHg 69%
    12:00 +20°C° 0.5 mm 4 mps 749 mmHg 66%
    13:00 +21°C° 0.5 mm 4 mps 748 mmHg 63%
    14:00 +21°C° 0.1 mm 3 mps 748 mmHg 60%
    15:00 +21°C° 0.1 mm 3 mps 748 mmHg 57%
    16:00 +21°C° 0.1 mm 3 mps 748 mmHg 55%
    17:00 +20°C° 0 mm 2 mps 748 mmHg 60%
    18:00 +19°C° 0 mm 2 mps 748 mmHg 65%
    19:00 +19°C° 0 mm 1 mps 748 mmHg 71%
    20:00 +16°C° 0 mm 1 mps 748 mmHg 74%
    21:00 +15°C° 0 mm 1 mps 749 mmHg 77%
    22:00 +14°C° 0 mm 1 mps 749 mmHg 81%
    23:00 +13°C° 0 mm 1 mps 749 mmHg 82%

    Day after tomorrow, 26 May, Sunday

    Time Temperature Precipitation Wind Pressure Humidity
    00:00 +12°C° 0 mm 1 mps 749 mmHg 84%
    01:00 +12°C° 0 mm 1 mps 749 mmHg 85%
    02:00 +11°C° 0 mm 1 mps 749 mmHg 87%
    03:00 +10°C° 0 mm 2 mps 749 mmHg 89%
    04:00 +9°C° 0 mm 2 mps 748 mmHg 92%
    05:00 +12°C° 0 mm 2 mps 749 mmHg 88%
    06:00 +12°C° 0 mm 3 mps 749 mmHg 84%
    07:00 +14°C° 0 mm 4 mps 749 mmHg 80%
    08:00 +15°C° 0 mm 4 mps 749 mmHg 75%
    09:00 +17°C° 0 mm 4 mps 749 mmHg 69%
    10:00 +17°C° 0 mm 5 mps 749 mmHg 63%
    11:00 +19°C° 0 mm 5 mps 748 mmHg 61%
    12:00 +20°C° 0 mm 5 mps 748 mmHg 58%
    13:00 +21°C° 0 mm 5 mps 748 mmHg 56%
    14:00 +21°C° 0 mm 5 mps 748 mmHg 55%
    15:00 +21°C° 0 mm 5 mps 747 mmHg 55%
    16:00 +21°C° 0 mm 5 mps 747 mmHg 55%
    17:00 +20°C° 0 mm 4 mps 747 mmHg 60%
    18:00 +19°C° 0 mm 3 mps 747 mmHg 66%
    19:00 +18°C° 0 mm 2 mps 747 mmHg 71%
    20:00 +17°C° 0 mm 2 mps 747 mmHg 73%
    21:00 +15°C° 0 mm 2 mps 748 mmHg 75%
    22:00 +14°C° 0 mm 2 mps 748 mmHg 77%
    23:00 +14°C° 0 mm 2 mps 748 mmHg 79%

    27 May, Monday

    Time Temperature Precipitation Wind Pressure Humidity
    00:00 +14°C° 0 mm 2 mps 747 mmHg 81%
    01:00 +13°C° 0 mm 2 mps 747 mmHg 83%
    02:00 +13°C° 0 mm 2 mps 747 mmHg 86%
    03:00 +13°C° 0 mm 2 mps 746 mmHg 88%
    04:00 +13°C° 0 mm 2 mps 746 mmHg 91%
    05:00 +13°C° 0 mm 3 mps 746 mmHg 85%
    06:00 +15°C° 0 mm 4 mps 746 mmHg 80%
    07:00 +18°C° 0 mm 4 mps 746 mmHg 75%
    08:00 +19°C° 0 mm 4 mps 746 mmHg 69%
    09:00 +21°C° 0 mm 5 mps 746 mmHg 63%
    10:00 +23°C° 0 mm 5 mps 745 mmHg 56%
    11:00 +23°C° 0.1 mm 5 mps 745 mmHg 56%
    12:00 +25°C° 0.1 mm 5 mps 745 mmHg 55%
    13:00 +25°C° 0.1 mm 5 mps 745 mmHg 55%
    14:00 +23°C° 0.5 mm 5 mps 745 mmHg 60%
    15:00 +23°C° 0.5 mm 5 mps 745 mmHg 65%
    16:00 +22°C° 0.5 mm 4 mps 745 mmHg 71%
    17:00 +21°C° 0.2 mm 4 mps 745 mmHg 75%
    18:00 +20°C° 0.2 mm 3 mps 745 mmHg 79%
    19:00 +19°C° 0.2 mm 2 mps 745 mmHg 82%
    20:00 +18°C° 0 mm 2 mps 745 mmHg 85%
    21:00 +16°C° 0 mm 2 mps 745 mmHg 88%
    22:00 +15°C° 0 mm 2 mps 746 mmHg 90%
    23:00 +14°C° 0 mm 2 mps 745 mmHg 91%

    28 May, Tuesday

    Time Temperature Precipitation Wind Pressure Humidity
    00:00 +14°C° 0 mm 1 mps 745 mmHg 91%
    01:00 +13°C° 0 mm 1 mps 745 mmHg 92%
    02:00 +13°C° 0 mm 1 mps 745 mmHg 92%
    03:00 +13°C° 0 mm 1 mps 745 mmHg 92%
    04:00 +13°C° 0 mm 1 mps 744 mmHg 92%
    05:00 +13°C° 0.7 mm 1 mps 744 mmHg 93%
    06:00 +14°C° 0.7 mm 2 mps 744 mmHg 93%
    07:00 +14°C° 0.7 mm 2 mps 744 mmHg 94%
    08:00 +14°C° 1.4 mm 2 mps 744 mmHg 94%
    09:00 +14°C° 1.4 mm 2 mps 744 mmHg 94%
    10:00 +13°C° 1.4 mm 3 mps 744 mmHg 95%
    11:00 +13°C° 0.9 mm 3 mps 743 mmHg 94%
    12:00 +13°C° 0.9 mm 4 mps 743 mmHg 94%
    13:00 +13°C° 0.9 mm 4 mps 743 mmHg 94%
    14:00 +14°C° 0.1 mm 4 mps 743 mmHg 93%
    15:00 +14°C° 0.1 mm 4 mps 743 mmHg 91%
    16:00 +15°C° 0.1 mm 5 mps 743 mmHg 90%
    17:00 +14°C° 0.6 mm 4 mps 743 mmHg 92%
    18:00 +14°C° 0.6 mm 4 mps 743 mmHg 94%
    19:00 +13°C° 0.6 mm 4 mps 743 mmHg 96%
    20:00 +13°C° 0.4 mm 4 mps 743 mmHg 96%
    21:00 +13°C° 0.4 mm 4 mps 743 mmHg 97%
    22:00 +13°C° 0.4 mm 4 mps 743 mmHg 97%
    23:00 +13°C° 0.2 mm 4 mps 743 mmHg 97%

    29 May, Wednesday

    Time Temperature Precipitation Wind Pressure Humidity
    00:00 +13°C° 0.2 mm 3 mps 743 mmHg 97%
    01:00 +13°C° 0.2 mm 3 mps 744 mmHg 97%
    02:00 +13°C° 0.4 mm 3 mps 744 mmHg 97%
    03:00 +12°C° 0.4 mm 4 mps 744 mmHg 97%
    04:00 +12°C° 0.4 mm 4 mps 744 mmHg 97%
    05:00 +12°C° 0.4 mm 4 mps 745 mmHg 96%
    06:00 +12°C° 0.4 mm 4 mps 745 mmHg 96%
    07:00 +12°C° 0.4 mm 4 mps 745 mmHg 96%
    08:00 +12°C° 0.2 mm 3 mps 746 mmHg 94%
    09:00 +13°C° 0.2 mm 3 mps 746 mmHg 92%
    10:00 +13°C° 0.2 mm 3 mps 746 mmHg 91%
    11:00 +14°C° 0 mm 3 mps 746 mmHg 88%
    12:00 +16°C° 0 mm 3 mps 747 mmHg 85%
    13:00 +16°C° 0 mm 3 mps 747 mmHg 82%
    14:00 +17°C° 0 mm 3 mps 747 mmHg 80%
    15:00 +17°C° 0 mm 3 mps 747 mmHg 79%
    16:00 +17°C° 0 mm 3 mps 747 mmHg 77%
    17:00 +16°C° 1.5 mm 3 mps 748 mmHg 83%
    18:00 +14°C° 1.5 mm 3 mps 748 mmHg 89%
    19:00 +13°C° 1.5 mm 3 mps 749 mmHg 95%
    20:00 +12°C° 1.2 mm 4 mps 749 mmHg 95%
    21:00 +12°C° 1.2 mm 4 mps 750 mmHg 95%
    22:00 +10°C° 1.2 mm 5 mps 751 mmHg 96%
    23:00 +9°C° 0.2 mm 5 mps 751 mmHg 94%
    Show more